User: anonymous   Login
Location: Oshawa
(43.9000°N, 78.8670°W)
Time: 03:35:39
(UTC-05:00)
Language:

Iridium 54 - Orbit

View from above orbital plane
View from above orbital plane
View from above satellite
View from above satellite

Ground track
Ground track

The orbit data is extracted from the following two-line orbital elements,

1 25171U 98010C   14326.18966735  .00000077  00000-0  20503-4 0    51
2 25171 086.3968 022.4620 0002253 107.4357 252.7086 14.34213208877485
Epoch (UTC): 22 November 2014 04:33:07
Eccentricity: 0.0002253
inclination: 86.3968°
perigee height: 776 km
apogee height: 779 km
right ascension of ascending node: 22.4620°
argument of perigee: 107.4357°
revolutions per day: 14.34213208
mean anomaly at epoch: 252.7086°
orbit number at epoch: 87748

The dashed part of the orbit path shows where the satellite is in the earth's shadow,  

DLR